Regional Weather Roundup
Issued by NWS

Home | Current Version | Previous Version | Text Only | Print | Product List | Glossary Off
Versions: 1 2 3 4 5 6 7 8 9 10 11 12 13 14 15 16 17 18 19 20 21 22 23 24 25 26 27 28 29 30 31 32 33 34 35 36 37 38 39 40 41 42 43 44 45 46 47 48 49 50

000
ASUS45 KCYS 030610
RWRWY

WYOMING REGIONAL WEATHER ROUNDUP
NATIONAL WEATHER SERVICE CHEYENNE WY
1200 AM MDT FRI JUL 03 2015

NOTE:  "FAIR" INDICATES FEW OR NO CLOUDS BELOW 12,000 FEET
WITH NO SIGNIFICANT WEATHER AND/OR OBSTRUCTIONS TO VISIBILITY.

WYZ001-030700-
YELLOWSTONE NATIONAL PARK

CITY           SKY/WX    TMP DP  RH WIND       PRES   REMARKS
LK YELLOWSTONE   N/A     51  40  65 CALM      30.34F
6HR MIN TEMP:  51; 6HR MAX TEMP:  78;

W YELLOWSTONE  NOT AVBL

$$
WYZ002>013-054>058-071-098>099-030700-
NORTHERN WYOMING

CITY           SKY/WX    TMP DP  RH WIND       PRES   REMARKS
JACKSON        FAIR      55  43  62 N7        30.21S
CODY           FAIR      66  48  52 W3        30.19S
GREYBULL       MOCLDY    77  48  35 NW12      30.07S
6HR MIN TEMP:  77; 6HR MAX TEMP:  89;

WORLAND        FAIR      71  54  54 SE8       30.10S
6HR MIN TEMP:  71; 6HR MAX TEMP:  89;

SHERIDAN       FAIR      58  53  84 SW3       30.13F
6HR MIN TEMP:  58; 6HR MAX TEMP:  83;

BUFFALO        FAIR      61  53  75 W7        30.19F
6HR MIN TEMP:  60; 6HR MAX TEMP:  76;

GILLETTE       FAIR      57  52  83 S6        30.16R
6HR MIN TEMP:  57; 6HR MAX TEMP:  77;

HULETT         FAIR      59  54  82 CALM      30.16S
NEWCASTLE      FAIR      61  52  72 CALM      30.15S

$$
WYZ014>020-022>026-101>103-030700-
CENTRAL WYOMING

CITY           SKY/WX    TMP DP  RH WIND       PRES   REMARKS
BIG PINEY      FAIR      58  34  40 NE5       30.27S
6HR MIN TEMP:  56; 6HR MAX TEMP:  88;

PINEDALE       FAIR      57  41  54 CALM      30.27S
DUBOIS         FAIR      59  46  63 E6        30.30S
LANDER         FAIR      67  52  58 W10       30.19S
6HR MIN TEMP:  66; 6HR MAX TEMP:  83;

RIVERTON       FAIR      69  53  56 E13       30.20S
6HR MIN TEMP:  69; 6HR MAX TEMP:  84;

CASPER         FAIR      64  54  69 NE9       30.20F
6HR MIN TEMP:  64; 6HR MAX TEMP:  81;

DOUGLAS        FAIR      63  58  83 SE3       30.20F
6HR MIN TEMP:  63; 6HR MAX TEMP:  80;


$$
WYZ021-027>030-104>119-030700-
SOUTHERN WYOMING

CITY           SKY/WX    TMP DP  RH WIND       PRES   REMARKS
EVANSTON       FAIR      69  42  37 CALM      30.25S
6HR MIN TEMP:  67; 6HR MAX TEMP:  87;

KEMMERER       FAIR      64  45  48 N9G17     30.28S
FORT BRIDGER   PTCLDY    68  32  26 W8        30.27S
ROCK SPRINGS   FAIR      63  49  60 NE7       30.24S
6HR MIN TEMP:  63; 6HR MAX TEMP:  80;

DIXON          FAIR      64  45  50 E10       30.21F
RAWLINS        FAIR      56  51  84 E9        30.25R
6HR MIN TEMP:  56; 6HR MAX TEMP:  77; 6HR PCP:  0.08;

SARATOGA       FAIR      54  50  87 S7        30.26F
LARAMIE        FAIR      56  50  80 SE9       30.28F
6HR MIN TEMP:  56; 6HR MAX TEMP:  72;

CHEYENNE       MOCLDY    64  53  67 CALM      30.25F
6HR MIN TEMP:  63; 6HR MAX TEMP:  78;

TORRINGTON     CLOUDY    65  61  87 NE8       30.14S
6HR MIN TEMP:  65; 6HR MAX TEMP:  82; 6HR PCP:  0.02;

PINE BLUFFS    MOCLDY    61  55  82 CALM      30.21S

$$


USA.gov is the U.S. government's official web portal to all federal, state and local government web resources and services.